Погода в Разнаволоке

Поиск расширенной информации на нашем сайте:

Полезная информация:

Новости сайта



02.01.2020
Опубликован Долгосрочный прогноз погоды по городам России и ближнего зарубежья на январь 2020 года.
Карты: Прогноз на январь и февраль 2020 года, Сравнение прогнозируемой аномалии приземной температуры воздуха на январь 2020 года по разным моделям.




Погода в Разнаволоке - сегодня

Время (UTC), дата Ветер
(°,м/с) 
Видим.   Явления Облачность Т
(°С)
Тd
(°С)
f(%) Тe
(°С)
Pmin
(гПа)
dP
(гПа)
Po
(мм)
O2
(г/м3)
Тmin Tmax R s Состояние
почвы
15 29.11.20 210 (ЮЗ) 20000 м  слаб. снег  10/10 600 м 
[Ns]
-3.5 -4.5 93 -7  1034  -0.7  775  317           
18 29.11.20 220 (ЮЗ) 20000 м  {снег}  10/10 600 м 
[Sc]
-3.2 -4.4 91 -7  1033.4  -0.6  774  316    -3.2  0.2     
21 29.11.20 190 (Ю) н/о    н/о 
-2.7 -3.4 95 -6  1032.4  -1  773  315           
00 30.11.20 180 (Ю) 20000 м    10/10 600 м 
[Sc]
-2.4 -3.1 95 -6  1030.9  -1.5  772  314           
03 30.11.20 190 (Ю) н/о    н/о 
-2.3 -3 95 -5  1029.4  -1.5  771  314  -3.5         
06 30.11.20 170 (Ю) 20000 м    10/10 600 м 
[Sc]
-2.4 -3.2 94 -4  1028.4  -1  770  314  -3.2      равномерный
сухой снег
100% 
09 30.11.20 180 (Ю) н/о    н/о 
-2.3 -2.8 96 -6  1026.9  -1.5  769  313           
12 30.11.20 180 (Ю) 20000 м  {ливн. осадки}  10/10 600 м 
[Sc]
-1.4 -2.1 95 -5  1024.6  -2.3  767  311           
15 30.11.20 170 (Ю) 20000 м  слаб. снег  10/10 600 м 
[Ns]
-0.4 -0.9 96 -3  1022.7  -1.9  766  309           
18 30.11.20 190 (Ю) 10 км  слаб. снег  10/10 600 м 
[Ns]
+0.3 -0.1 97 -2  1021  -1.7  765  308    +0.3  0.2     
21 30.11.20 180 (Ю) н/о    н/о 
+0.5 -0.1 96 -2  1019.3  -1.7  764  307           
00 01.12.20 170 (Ю) 4000 м  снег  10/0 средняя 
[As op]
+0.1 +0 99 -2  1017.3  -2  762  307           
03 01.12.20 190 (Ю) н/о    н/о 
+0.6 +0.4 99 -2  1016  -2  761  306  -0.4         
06 01.12.20 240 (ЮЗ) 5{10}  20000 м  {снег}  6/3 600 м средняя 
[Sc|Ac trans]
-0.1 -1.7 89 -3  1017  762  307  -0.1    равномерный
сухой снег
100% 
09 01.12.20 220 (ЮЗ) 5{11}  н/о    н/о 
-0.5 -1.6 92 -4  1017.6  0.6  762  308           
12 01.12.20 220 (ЮЗ) 20000 м    1/1 600 м 
[Sc]
-0.7 -1.9 92 -4  1017.5  0.1  762  308           
15 01.12.20 190 (Ю) 20000 м    10/0 средняя 
[As op]
-1.1 -2.2 92 -4  1017.4  0.1  762  309           
18 01.12.20 180 (Ю) 4000 м  снег  10/10 600 м 
[Ns]
-0.8 -1.2 97 -3  1016.6  -0.8  762  308    -0.1  0.3     
21 01.12.20 250 (З) н/о    н/о 
-0.5 -0.5 100 -1  1017.2  0.6  762  308           
00 02.12.20 270 (З) 20000 м  {снег}  10/10 1000 м 
[Sc]
-1 -1.5 96 -2  1020.4  3.2  764  309           
03 02.12.20 250 (З) н/о    н/о 
-0.3 -0.7 97 -1  1022.4  766  309  -1.1         
06 02.12.20 240 (ЮЗ) 20000 м    10/10 600 м 
[Sc]
-0.1 -0.4 98 -1  1024.1  1.7  767  309  -1    10  равномерный
сухой снег
100% 
09 02.12.20 250 (З) н/о    н/о 
-1.2 -1.8 96 -3  1025.4  1.7  768  311           
12 02.12.20 250 (З) 20000 м    10/10 600 м 
[Sc]
-1.9 -3.1 91 -4  1026.1  0.7  769  312           
15 02.12.20 250 (З) 20000 м  слаб. снег  10/0 средняя 
[As op]
-1.8 -3.3 89 -5  1026.3  0.2  769  312           
Время (UTC), дата Ветер
(°,м/с) 
Видим.   Явления Облачность Т
(°С)
Тd
(°С)
f(%) Тe
(°С)
Pmin
(гПа)
dP
(гПа)
Po
(мм)
O2
(г/м3)
Тmin Tmax R s Состояние
почвы

Для получения пояснительной информации подведите курсор к названию столбца.

ПОГОДА в Разнаволоке - архив

Всё, что Вы хотите узнать о погоде в Разнаволоке - удобно и подробно!

Выберите нужную дату (начиная с 1 января 2019* года) и нажмите кнопку "Найти".
Будут отображены архивные сводки погоды по пункту Разнаволок, начиная с указанной даты.


Отображать данные в формате CSV (для использования в таблицах Excel)


Внимание! Наш архив погоды предназначен исключительно для личного некоммерческого использования в познавательных целях. Если Вам необходимы официальные справки о состоянии погоды (для производственных, юридических, коммерческих и т.п. целей), обращайтесь в органы Росгидромета.

*Примечание: данная дата относится к архиву по метеостанциям СССР (Россия, СНГ, Балтия).
Архив по метеостанциям Зарубежной Европы и Азии (кроме Китая) хранится 10 дней, по другим регионам земного шара (Китай, Африка, Америка, Австралия, Океания) - 1 день.

Разнаволок - район местоположения метеостанции


Название, широта, долгота, высота метеостанции:
Разнаволок 64.6°ш. 34.9°д. 9 м над ур. моря [Российская Федерация]

Дополнительная информация

В oтличие oт бoльшинства пoгoдных сайтoв мы публикуем пoдрoбную метеoинфoрмацию в детальнoм прoфессиoнальнoм фoрмате.

Характеристики температуры и влажнoсти вoздуха измеряются на высoте 2 м в тени вдали oт зданий и деревьев.
Скoрoсть ветра измеряется на высoте 10 м (на урoвне рoста челoвека скoрoсть ветра ниже в 1.5-2 раза). Если метеoстанция нахoдится в гoрoде или в лесу, тo скoрoсть ветра занижена на 2-4 м/с пo сравнению с oткрытым местoм. Скoрoсть ветра над акватoриями крупных рек и oзёр, а также на вершинах хoлмoв на 2-5 м/с выше, чем в oбычных услoвиях.
Атмoсфернoе давление в разных тoчках местнoсти мoжет значительнo oтличаться oт давления на метеoстанции, в зависимoсти oт услoвий рельефа (при пoдъёме на 10 м давление пoнижается примернo на 1 мм рт.ст.).